Time,TemperatureF,DewpointF,PressureIn,WindDirection,WindDirectionDegrees,WindSpeedMPH,WindSpeedGustMPH,Humidity,HourlyPrecipIn,Conditions,Clouds,dailyrainin,SoftwareType,DateUTC
2013-02-19 00:01:00,33.0,-10.0,29.86,ESE,104,1.0,2.0,15,0.00,,,0.00,,2013-02-19 07:01:00,
2013-02-19 00:11:00,33.0,-10.0,29.86,ESE,104,1.0,2.0,15,0.00,,,0.00,,2013-02-19 07:11:00,
2013-02-19 00:21:00,32.0,-9.0,29.86,ESE,111,1.0,2.0,16,0.00,,,0.00,,2013-02-19 07:21:00,
2013-02-19 00:32:00,32.0,-8.0,29.86,East,90,0.0,1.0,17,0.00,,,0.00,,2013-02-19 07:32:00,
2013-02-19 00:42:00,32.0,-8.0,29.86,East,90,0.0,1.0,17,0.00,,,0.00,,2013-02-19 07:42:00,
2013-02-19 00:52:00,31.0,-9.0,29.86,WSW,256,1.0,1.0,17,0.00,,,0.00,,2013-02-19 07:52:00,
2013-02-19 01:01:00,31.0,-9.0,29.87,NW,326,0.0,1.0,17,0.00,,,0.00,,2013-02-19 08:01:00,
2013-02-19 01:11:00,31.0,-9.0,29.87,NW,326,0.0,1.0,17,0.00,,,0.00,,2013-02-19 08:11:00,
2013-02-19 01:21:00,30.0,-8.0,29.87,NNW,338,0.0,1.0,18,0.00,,,0.00,,2013-02-19 08:21:00,
2013-02-19 01:31:00,30.0,-8.0,29.87,NNE,23,0.0,1.0,18,0.00,,,0.00,,2013-02-19 08:31:00,
2013-02-19 01:42:00,30.0,-8.0,29.87,NNE,23,0.0,1.0,18,0.00,,,0.00,,2013-02-19 08:42:00,
2013-02-19 01:52:00,29.0,-7.0,29.86,ENE,74,1.0,1.0,20,0.00,,,0.00,,2013-02-19 08:52:00,
2013-02-19 02:01:00,30.0,-6.0,29.86,NNW,347,1.0,3.0,20,0.00,,,0.00,,2013-02-19 09:01:00,
2013-02-19 02:11:00,30.0,-6.0,29.86,NNW,347,1.0,3.0,20,0.00,,,0.00,,2013-02-19 09:11:00,
2013-02-19 02:21:00,30.0,-7.0,29.86,NNW,338,0.0,4.0,19,0.00,,,0.00,,2013-02-19 09:21:00,
2013-02-19 02:32:00,30.0,-7.0,29.85,NW,315,1.0,2.0,19,0.00,,,0.00,,2013-02-19 09:32:00,
2013-02-19 02:42:00,30.0,-7.0,29.85,NW,315,1.0,2.0,19,0.00,,,0.00,,2013-02-19 09:42:00,
2013-02-19 02:53:00,30.0,-8.0,29.85,NNW,342,0.0,2.0,18,0.00,,,0.00,,2013-02-19 09:53:00,
2013-02-19 03:01:00,29.0,-9.0,29.85,NW,315,0.0,1.0,18,0.00,,,0.00,,2013-02-19 10:01:00,
2013-02-19 03:11:00,29.0,-9.0,29.85,NW,315,0.0,1.0,18,0.00,,,0.00,,2013-02-19 10:11:00,
2013-02-19 03:21:00,28.0,-9.0,29.84,NNW,338,0.0,0.0,19,0.00,,,0.00,,2013-02-19 10:21:00,
2013-02-19 03:31:00,27.0,-9.0,29.84,NNW,338,1.0,2.0,20,0.00,,,0.00,,2013-02-19 10:31:00,
2013-02-19 03:41:00,27.0,-9.0,29.84,NNW,338,1.0,2.0,20,0.00,,,0.00,,2013-02-19 10:41:00,
2013-02-19 03:52:00,28.0,-8.0,29.84,NNW,338,0.0,1.0,20,0.00,,,0.00,,2013-02-19 10:52:00,
2013-02-19 04:01:00,27.0,-9.0,29.84,NNW,338,0.0,1.0,20,0.00,,,0.00,,2013-02-19 11:01:00,
2013-02-19 04:11:00,27.0,-9.0,29.84,NNW,338,0.0,1.0,20,0.00,,,0.00,,2013-02-19 11:11:00,
2013-02-19 04:21:00,26.0,-9.0,29.84,NNW,338,1.0,1.0,20,0.00,,,0.00,,2013-02-19 11:21:00,
2013-02-19 04:32:00,26.0,-9.0,29.83,North,0,0.0,1.0,20,0.00,,,0.00,,2013-02-19 11:32:00,
2013-02-19 04:42:00,26.0,-9.0,29.83,North,0,0.0,1.0,20,0.00,,,0.00,,2013-02-19 11:42:00,
2013-02-19 04:52:00,25.0,-9.0,29.82,NE,45,0.0,0.0,21,0.00,,,0.00,,2013-02-19 11:52:00,
2013-02-19 05:01:00,25.0,-9.0,29.83,SE,135,0.0,0.0,21,0.00,,,0.00,,2013-02-19 12:01:00,
2013-02-19 05:12:00,25.0,-9.0,29.83,SE,135,0.0,0.0,21,0.00,,,0.00,,2013-02-19 12:12:00,
2013-02-19 05:22:00,24.0,-10.0,29.82,SSE,158,0.0,0.0,21,0.00,,,0.00,,2013-02-19 12:22:00,
2013-02-19 05:32:00,24.0,-8.0,29.82,NE,45,0.0,1.0,23,0.00,,,0.00,,2013-02-19 12:32:00,
2013-02-19 05:42:00,24.0,-8.0,29.82,NE,45,0.0,1.0,23,0.00,,,0.00,,2013-02-19 12:42:00,
2013-02-19 05:52:00,24.0,-8.0,29.83,East,90,0.0,0.0,23,0.00,,,0.00,,2013-02-19 12:52:00,
2013-02-19 06:02:00,23.0,-9.0,29.82,SE,135,0.0,1.0,23,0.00,,,0.00,,2013-02-19 13:02:00,
2013-02-19 06:11:00,23.0,-9.0,29.82,SE,135,0.0,1.0,23,0.00,,,0.00,,2013-02-19 13:11:00,
2013-02-19 06:22:00,23.0,-8.0,29.82,SSE,158,0.0,0.0,24,0.00,,,0.00,,2013-02-19 13:22:00,
2013-02-19 06:32:00,23.0,-8.0,29.82,SSE,158,0.0,0.0,24,0.00,,,0.00,,2013-02-19 13:32:00,
2013-02-19 06:41:00,23.0,-8.0,29.82,SSE,158,0.0,0.0,24,0.00,,,0.00,,2013-02-19 13:41:00,
2013-02-19 06:52:00,22.0,-8.0,29.83,SSW,203,0.0,1.0,26,0.00,,,0.00,,2013-02-19 13:52:00,
2013-02-19 07:01:00,22.0,-8.0,29.83,ESE,113,0.0,0.0,26,0.00,,,0.00,,2013-02-19 14:01:00,
2013-02-19 07:11:00,22.0,-8.0,29.83,ESE,113,0.0,0.0,26,0.00,,,0.00,,2013-02-19 14:11:00,
2013-02-19 07:21:00,22.0,-8.0,29.83,ESE,113,0.0,0.0,26,0.00,,,0.00,,2013-02-19 14:21:00,
2013-02-19 07:32:00,23.0,-7.0,29.83,SE,135,0.0,0.0,26,0.00,,,0.00,,2013-02-19 14:32:00,
2013-02-19 07:42:00,23.0,-7.0,29.83,SE,135,0.0,0.0,26,0.00,,,0.00,,2013-02-19 14:42:00,
2013-02-19 07:52:00,24.0,-5.0,29.83,North,0,0.0,0.0,27,0.00,,,0.00,,2013-02-19 14:52:00,
2013-02-19 08:01:00,26.0,-3.0,29.83,NW,325,1.0,2.0,27,0.00,,,0.00,,2013-02-19 15:01:00,
2013-02-19 08:11:00,26.0,-3.0,29.83,NW,325,1.0,2.0,27,0.00,,,0.00,,2013-02-19 15:11:00,
2013-02-19 08:21:00,28.0,-2.0,29.84,NNW,338,1.0,2.0,26,0.00,,,0.00,,2013-02-19 15:21:00,
2013-02-19 08:31:00,29.0,-3.0,29.84,WNW,293,0.0,1.0,24,0.00,,,0.00,,2013-02-19 15:31:00,
2013-02-19 08:42:00,29.0,-3.0,29.84,WNW,293,0.0,1.0,24,0.00,,,0.00,,2013-02-19 15:42:00,
2013-02-19 08:52:00,30.0,-2.0,29.83,NE,38,1.0,1.0,24,0.00,,,0.00,,2013-02-19 15:52:00,
2013-02-19 09:01:00,31.0,-2.0,29.83,WSW,258,2.0,3.0,24,0.00,,,0.00,,2013-02-19 16:01:00,
2013-02-19 09:11:00,31.0,-2.0,29.83,WSW,258,2.0,3.0,24,0.00,,,0.00,,2013-02-19 16:11:00,
2013-02-19 09:21:00,34.0,0.0,29.82,West,273,2.0,3.0,23,0.00,,,0.00,,2013-02-19 16:21:00,
2013-02-19 09:32:00,35.0,-1.0,29.83,NW,325,3.0,4.0,21,0.00,,,0.00,,2013-02-19 16:32:00,
2013-02-19 09:41:00,35.0,-1.0,29.83,NW,325,3.0,4.0,21,0.00,,,0.00,,2013-02-19 16:41:00,
2013-02-19 09:52:00,35.0,-1.0,29.82,NW,304,2.0,4.0,21,0.00,,,0.00,,2013-02-19 16:52:00,
2013-02-19 10:01:00,36.0,-1.0,29.81,North,357,2.0,4.0,20,0.00,,,0.00,,2013-02-19 17:01:00,
2013-02-19 10:11:00,36.0,-1.0,29.81,North,357,2.0,4.0,20,0.00,,,0.00,,2013-02-19 17:11:00,
2013-02-19 10:21:00,39.0,0.0,29.81,NNW,335,1.0,3.0,19,0.00,,,0.00,,2013-02-19 17:21:00,
2013-02-19 10:32:00,41.0,0.0,29.80,West,276,1.0,3.0,17,0.00,,,0.00,,2013-02-19 17:32:00,
2013-02-19 10:41:00,41.0,0.0,29.80,West,276,1.0,3.0,17,0.00,,,0.00,,2013-02-19 17:41:00,
2013-02-19 10:52:00,41.0,0.0,29.80,NW,310,2.0,2.0,17,0.00,,,0.00,,2013-02-19 17:52:00,
2013-02-19 11:01:00,43.0,-1.0,29.79,NNW,338,2.0,5.0,15,0.00,,,0.00,,2013-02-19 18:01:00,
2013-02-19 11:11:00,43.0,-1.0,29.79,NNW,338,2.0,5.0,15,0.00,,,0.00,,2013-02-19 18:11:00,
2013-02-19 11:21:00,45.0,-1.0,29.78,WNW,286,3.0,6.0,14,0.00,,,0.00,,2013-02-19 18:21:00,
2013-02-19 11:31:00,46.0,0.0,29.76,NNW,343,3.0,5.0,14,0.00,,,0.00,,2013-02-19 18:31:00,
2013-02-19 11:41:00,47.0,0.0,29.75,North,349,2.0,7.0,14,0.00,,,0.00,,2013-02-19 18:41:00,
2013-02-19 11:52:00,47.0,0.0,29.75,North,349,2.0,7.0,14,0.00,,,0.00,,2013-02-19 18:52:00,
2013-02-19 12:01:00,50.0,3.0,29.74,WSW,258,2.0,4.0,14,0.00,,,0.00,,2013-02-19 19:01:00,
2013-02-19 12:11:00,50.0,3.0,29.74,WSW,258,2.0,4.0,14,0.00,,,0.00,,2013-02-19 19:11:00,
2013-02-19 12:21:00,50.0,-1.0,29.73,NW,309,3.0,7.0,12,0.00,,,0.00,,2013-02-19 19:21:00,
2013-02-19 12:31:00,51.0,0.0,29.72,SW,235,2.0,5.0,12,0.00,,,0.00,,2013-02-19 19:31:00,
2013-02-19 12:41:00,51.0,0.0,29.72,SW,235,2.0,5.0,12,0.00,,,0.00,,2013-02-19 19:41:00,
2013-02-19 12:52:00,52.0,1.0,29.71,NNE,28,2.0,5.0,12,0.00,,,0.00,,2013-02-19 19:52:00,
2013-02-19 13:01:00,54.0,3.0,29.69,NNW,329,1.0,4.0,12,0.00,,,0.00,,2013-02-19 20:01:00,
2013-02-19 13:12:00,54.0,3.0,29.69,NNW,329,1.0,4.0,12,0.00,,,0.00,,2013-02-19 20:12:00,
2013-02-19 13:21:00,57.0,5.0,29.68,WSW,253,2.0,5.0,12,0.00,,,0.00,,2013-02-19 20:21:00,
2013-02-19 13:32:00,58.0,6.0,29.67,West,263,2.0,5.0,12,0.00,,,0.00,,2013-02-19 20:32:00,
2013-02-19 13:42:00,58.0,6.0,29.67,West,263,2.0,5.0,12,0.00,,,0.00,,2013-02-19 20:42:00,
2013-02-19 13:52:00,60.0,7.0,29.66,SSW,212,4.0,5.0,12,0.00,,,0.00,,2013-02-19 20:52:00,
2013-02-19 14:02:00,62.0,9.0,29.64,South,176,4.0,8.0,12,0.00,,,0.00,,2013-02-19 21:02:00,
2013-02-19 14:21:00,62.0,9.0,29.64,SSE,163,5.0,8.0,12,0.00,,,0.00,,2013-02-19 21:21:00,
2013-02-19 14:31:00,62.0,9.0,29.63,SSE,151,3.0,7.0,12,0.00,,,0.00,,2013-02-19 21:31:00,
2013-02-19 14:51:00,62.0,9.0,29.62,SSE,168,6.0,10.0,12,0.00,,,0.00,,2013-02-19 21:51:00,
2013-02-19 15:02:00,62.0,7.0,29.61,South,181,7.0,9.0,11,0.00,,,0.00,,2013-02-19 22:02:00,
2013-02-19 15:11:00,62.0,7.0,29.61,South,181,7.0,9.0,11,0.00,,,0.00,,2013-02-19 22:11:00,
2013-02-19 15:21:00,62.0,9.0,29.61,SE,127,4.0,10.0,12,0.00,,,0.00,,2013-02-19 22:21:00,
2013-02-19 15:32:00,62.0,7.0,29.60,South,169,8.0,11.0,11,0.00,,,0.00,,2013-02-19 22:32:00,
2013-02-19 15:41:00,62.0,7.0,29.60,South,169,8.0,11.0,11,0.00,,,0.00,,2013-02-19 22:41:00,
2013-02-19 15:51:00,62.0,9.0,29.59,SW,216,4.0,9.0,12,0.00,,,0.00,,2013-02-19 22:51:00,
2013-02-19 16:01:00,62.0,9.0,29.58,South,172,8.0,11.0,12,0.00,,,0.00,,2013-02-19 23:01:00,
2013-02-19 16:11:00,62.0,9.0,29.58,South,172,8.0,11.0,12,0.00,,,0.00,,2013-02-19 23:11:00,
2013-02-19 16:21:00,61.0,8.0,29.58,SSW,206,4.0,12.0,12,0.00,,,0.00,,2013-02-19 23:21:00,
2013-02-19 16:32:00,61.0,8.0,29.58,SSE,153,6.0,12.0,12,0.00,,,0.00,,2013-02-19 23:32:00,
2013-02-19 16:41:00,61.0,8.0,29.58,SSE,153,6.0,12.0,12,0.00,,,0.00,,2013-02-19 23:41:00,
2013-02-19 16:52:00,60.0,12.0,29.57,SSW,209,8.0,15.0,15,0.00,,,0.00,,2013-02-19 23:52:00,
2013-02-19 17:01:00,60.0,14.0,29.58,SSE,164,10.0,12.0,16,0.00,,,0.00,,2013-02-20 00:01:00,
2013-02-19 17:11:00,60.0,14.0,29.58,SSE,164,10.0,12.0,16,0.00,,,0.00,,2013-02-20 00:11:00,
2013-02-19 17:21:00,58.0,13.0,29.58,SSE,160,7.0,16.0,17,0.00,,,0.00,,2013-02-20 00:21:00,
2013-02-19 17:31:00,57.0,16.0,29.57,South,169,11.0,14.0,20,0.00,,,0.00,,2013-02-20 00:31:00,
2013-02-19 17:52:00,56.0,18.0,29.57,South,181,8.0,15.0,22,0.00,,,0.00,,2013-02-20 00:52:00,
2013-02-19 18:02:00,55.0,20.0,29.57,SSE,162,8.0,15.0,25,0.00,,,0.00,,2013-02-20 01:02:00,
2013-02-19 18:11:00,55.0,20.0,29.57,SSE,162,8.0,15.0,25,0.00,,,0.00,,2013-02-20 01:11:00,
2013-02-19 18:21:00,55.0,22.0,29.57,SSE,158,8.0,13.0,27,0.00,,,0.00,,2013-02-20 01:21:00,
2013-02-19 18:32:00,55.0,23.0,29.57,SE,138,8.0,14.0,28,0.00,,,0.00,,2013-02-20 01:32:00,
2013-02-19 18:42:00,55.0,23.0,29.57,SE,138,8.0,14.0,28,0.00,,,0.00,,2013-02-20 01:42:00,
2013-02-19 18:52:00,54.0,26.0,29.57,SSE,151,7.0,16.0,33,0.00,,,0.00,,2013-02-20 01:52:00,
2013-02-19 19:01:00,53.0,27.0,29.57,South,172,11.0,17.0,37,0.00,,,0.00,,2013-02-20 02:01:00,
2013-02-19 19:11:00,53.0,27.0,29.57,South,172,11.0,17.0,37,0.00,,,0.00,,2013-02-20 02:11:00,
2013-02-19 19:21:00,53.0,30.0,29.58,South,175,14.0,16.0,41,0.00,,,0.00,,2013-02-20 02:21:00,
2013-02-19 19:31:00,52.0,30.0,29.58,SSE,159,12.0,17.0,42,0.00,,,0.00,,2013-02-20 02:31:00,
2013-02-19 19:42:00,52.0,30.0,29.58,SSE,159,12.0,17.0,42,0.00,,,0.00,,2013-02-20 02:42:00,
2013-02-19 19:52:00,52.0,30.0,29.59,South,170,6.0,16.0,42,0.00,,,0.00,,2013-02-20 02:52:00,
2013-02-19 20:01:00,52.0,31.0,29.58,SSE,166,7.0,11.0,44,0.00,,,0.00,,2013-02-20 03:01:00,
2013-02-19 20:12:00,52.0,31.0,29.58,SSE,166,7.0,11.0,44,0.00,,,0.00,,2013-02-20 03:12:00,
2013-02-19 20:22:00,51.0,31.0,29.58,SE,146,7.0,16.0,46,0.00,,,0.00,,2013-02-20 03:22:00,
2013-02-19 20:32:00,50.0,30.0,29.58,SSE,147,10.0,13.0,46,0.00,,,0.00,,2013-02-20 03:32:00,
2013-02-19 20:41:00,50.0,30.0,29.58,SSE,147,10.0,13.0,46,0.00,,,0.00,,2013-02-20 03:41:00,
2013-02-19 20:52:00,50.0,31.0,29.58,SSE,152,9.0,12.0,48,0.00,,,0.00,,2013-02-20 03:52:00,
2013-02-19 21:01:00,49.0,31.0,29.58,South,170,8.0,13.0,49,0.00,,,0.00,,2013-02-20 04:01:00,
2013-02-19 21:11:00,49.0,31.0,29.58,South,170,8.0,13.0,49,0.00,,,0.00,,2013-02-20 04:11:00,
2013-02-19 21:21:00,49.0,31.0,29.58,SSE,165,9.0,13.0,50,0.00,,,0.00,,2013-02-20 04:21:00,
2013-02-19 21:31:00,49.0,32.0,29.58,SE,144,9.0,19.0,52,0.00,,,0.00,,2013-02-20 04:31:00,
2013-02-19 21:41:00,49.0,32.0,29.58,SE,144,9.0,19.0,52,0.00,,,0.00,,2013-02-20 04:41:00,
2013-02-19 21:51:00,49.0,32.0,29.58,South,178,7.0,13.0,52,0.00,,,0.00,,2013-02-20 04:51:00,
2013-02-19 22:02:00,48.0,32.0,29.59,SSE,156,8.0,14.0,54,0.00,,,0.00,,2013-02-20 05:02:00,
2013-02-19 22:12:00,48.0,32.0,29.59,SSE,156,8.0,14.0,54,0.00,,,0.00,,2013-02-20 05:12:00,
2013-02-19 22:22:00,48.0,33.0,29.59,SSE,155,8.0,13.0,55,0.00,,,0.00,,2013-02-20 05:22:00,
2013-02-19 22:32:00,47.0,32.0,29.58,SSE,156,8.0,12.0,56,0.00,,,0.00,,2013-02-20 05:32:00,
2013-02-19 22:43:00,47.0,32.0,29.58,SSE,156,8.0,12.0,56,0.00,,,0.00,,2013-02-20 05:43:00,
2013-02-19 22:52:00,46.0,32.0,29.58,SE,145,8.0,11.0,57,0.00,,,0.00,,2013-02-20 05:52:00,
2013-02-19 23:01:00,46.0,32.0,29.59,SSE,159,7.0,11.0,58,0.00,,,0.00,,2013-02-20 06:01:00,
2013-02-19 23:11:00,46.0,32.0,29.59,SSE,147,5.0,11.0,59,0.00,,,0.00,,2013-02-20 06:11:00,
2013-02-19 23:21:00,46.0,32.0,29.59,SSE,147,5.0,11.0,59,0.00,,,0.00,,2013-02-20 06:21:00,
2013-02-19 23:31:00,46.0,33.0,29.58,SE,144,8.0,11.0,60,0.00,,,0.00,,2013-02-20 06:31:00,
2013-02-19 23:42:00,46.0,33.0,29.58,SE,144,8.0,11.0,60,0.00,,,0.00,,2013-02-20 06:42:00,
2013-02-19 23:52:00,46.0,33.0,29.58,SE,145,6.0,12.0,60,0.00,,,0.00,,2013-02-20 06:52:00,